Tracking 30264 objects as of 16-Feb-2025
HD Live streaming from Space Station
objects crossing your sky now

AGILA

Track AGILA now!


NORAD ID: 62456
Int'l Code: 2024-252C
Perigee: 4,659.6 km
Apogee: 67,501.2 km
Inclination: 8.4 °
Period: 1,450.8 minutes
Semi major axis: 42451 km
RCS: Unknown
Launch date: December 29, 2024
Source: United Kingdom (UK)
Launch site: AIR FORCE EASTERN TEST RANGE (AFETR)
Your satellite tracking list
Your tracking list is empty




NASA's NSSDC Master Catalog

Two Line Element Set (TLE):
1 62456U 24252C   25045.43869522 -.00000358  00000-0  00000-0 0  9990
2 62456   8.4099 350.6209 7401592 194.5070 118.6168  0.99257927   500
Source of the keplerian elements: AFSPC